TimeCST,TemperatureF,Dew PointF,Humidity,Sea Level PressureIn,VisibilityMPH,Wind Direction,Wind SpeedMPH,Gust SpeedMPH,PrecipitationIn,Events,Conditions,WindDirDegrees,DateUTC
12:15 AM,14.0,8.6,79,30.36,10.0,North,4.6,-,N/A,,Clear,360,2013-02-21 06:15:00
12:35 AM,14.0,8.6,79,30.36,10.0,North,6.9,-,N/A,,Clear,360,2013-02-21 06:35:00
12:55 AM,14.0,8.6,79,30.36,10.0,North,5.8,-,N/A,,Clear,360,2013-02-21 06:55:00
1:15 AM,14.0,8.6,79,30.35,10.0,North,6.9,-,N/A,,Clear,360,2013-02-21 07:15:00
1:35 AM,14.0,8.6,79,30.35,10.0,North,5.8,-,N/A,,Clear,10,2013-02-21 07:35:00
1:55 AM,14.0,6.8,73,30.35,10.0,NNE,8.1,-,N/A,,Clear,20,2013-02-21 07:55:00
2:15 AM,12.2,6.8,79,30.36,10.0,North,5.8,-,N/A,,Clear,360,2013-02-21 08:15:00
2:35 AM,12.2,6.8,79,30.36,10.0,NNW,3.5,-,N/A,,Clear,330,2013-02-21 08:35:00
2:55 AM,12.2,6.8,79,30.36,10.0,NNW,3.5,-,N/A,,Scattered Clouds,330,2013-02-21 08:55:00
3:15 AM,12.2,6.8,79,30.36,10.0,NNW,3.5,-,N/A,,Mostly Cloudy,330,2013-02-21 09:15:00
3:35 AM,10.4,6.8,85,30.36,10.0,NW,3.5,-,N/A,,Scattered Clouds,320,2013-02-21 09:35:00
3:55 AM,10.4,6.8,85,30.36,10.0,NW,3.5,-,N/A,,Clear,310,2013-02-21 09:55:00
4:15 AM,10.4,6.8,85,30.38,10.0,WNW,4.6,-,N/A,,Mostly Cloudy,290,2013-02-21 10:15:00
4:35 AM,10.4,8.6,92,30.38,10.0,NW,3.5,-,N/A,,Overcast,310,2013-02-21 10:35:00
5:45 AM,10.4,8.6,92,30.37,10.0,North,5.8,-,N/A,,Overcast,360,2013-02-21 11:45:00
6:45 AM,12.2,10.4,92,30.38,10.0,NNE,4.6,-,N/A,,Overcast,30,2013-02-21 12:45:00
7:10 AM,12.2,10.4,92,30.37,10.0,North,4.6,-,N/A,,Overcast,10,2013-02-21 13:10:00
7:45 AM,14.0,10.4,86,30.40,1.5,North,3.5,-,N/A,Snow,Light Snow,350,2013-02-21 13:45:00
8:45 AM,15.8,12.2,86,30.39,5.0,Calm,Calm,-,N/A,Snow,Light Snow,0,2013-02-21 14:45:00
9:45 AM,15.8,14.0,93,30.36,10.0,NW,9.2,-,N/A,,Overcast,320,2013-02-21 15:45:00
10:45 AM,17.6,15.8,93,30.36,10.0,NW,6.9,-,N/A,,Overcast,320,2013-02-21 16:45:00
11:45 AM,19.4,15.8,86,30.35,10.0,NNW,4.6,-,N/A,,Overcast,330,2013-02-21 17:45:00
12:45 PM,21.2,19.4,93,30.30,10.0,NNE,6.9,-,N/A,,Overcast,30,2013-02-21 18:45:00
1:45 PM,21.2,19.4,93,30.25,10.0,ENE,6.9,-,N/A,,Overcast,60,2013-02-21 19:45:00
2:45 PM,23.0,21.2,93,30.24,10.0,NE,11.5,20.7,N/A,,Overcast,40,2013-02-21 20:45:00
3:45 PM,24.8,21.2,86,30.25,10.0,NE,9.2,-,N/A,,Overcast,40,2013-02-21 21:45:00
4:45 PM,24.8,21.2,86,30.23,10.0,ENE,16.1,-,N/A,,Overcast,60,2013-02-21 22:45:00
5:10 PM,24.8,21.2,86,30.23,10.0,ENE,11.5,-,N/A,,Overcast,70,2013-02-21 23:10:00
5:45 PM,24.8,21.2,86,30.21,10.0,ENE,11.5,-,N/A,,Overcast,70,2013-02-21 23:45:00
6:45 PM,24.8,21.2,86,30.19,10.0,East,8.1,-,N/A,,Overcast,80,2013-02-22 00:45:00
7:45 PM,24.8,21.2,86,30.15,10.0,East,17.3,-,N/A,,Overcast,90,2013-02-22 01:45:00
8:15 PM,26.6,21.2,80,30.13,10.0,East,16.1,23.0,N/A,,Overcast,90,2013-02-22 02:15:00
8:35 PM,24.8,21.2,86,30.12,10.0,East,12.7,25.3,N/A,,Overcast,80,2013-02-22 02:35:00
8:45 PM,24.8,19.4,80,30.10,10.0,East,17.3,-,N/A,,Overcast,80,2013-02-22 02:45:00
8:55 PM,24.8,21.2,86,30.09,10.0,East,20.7,27.6,N/A,,Overcast,80,2013-02-22 02:55:00
9:15 PM,24.8,21.2,86,30.10,10.0,East,16.1,26.5,N/A,,Overcast,80,2013-02-22 03:15:00
9:35 PM,24.8,21.2,86,30.10,10.0,East,16.1,23.0,N/A,,Overcast,100,2013-02-22 03:35:00
9:55 PM,24.8,21.2,86,30.10,10.0,East,16.1,24.2,N/A,,Overcast,90,2013-02-22 03:55:00
10:15 PM,24.8,21.2,86,30.08,10.0,East,17.3,20.7,N/A,,Overcast,80,2013-02-22 04:15:00
10:35 PM,24.8,21.2,86,30.08,10.0,East,16.1,-,N/A,,Overcast,80,2013-02-22 04:35:00
10:55 PM,24.8,21.2,86,30.07,10.0,East,16.1,24.2,N/A,,Overcast,80,2013-02-22 04:55:00
11:15 PM,24.8,21.2,86,30.07,10.0,East,11.5,20.7,N/A,,Overcast,90,2013-02-22 05:15:00
11:35 PM,24.8,21.2,86,30.07,10.0,East,15.0,26.5,N/A,,Overcast,90,2013-02-22 05:35:00
11:55 PM,24.8,21.2,86,30.06,10.0,East,16.1,25.3,N/A,,Overcast,90,2013-02-22 05:55:00